Location: Unspecified
(0.0000°N, 0.0000°E)
Time: 08:12:54
(UTC+00:00)

STARLINK-2726 - Pass Details

Date: 12 June 2021
Orbit: 349 x 351 km, 53.0° (Epoch: 20 June)

Event Time Altitude Azimuth Distance (km) Brightness Sun altitude
Exits shadow 04:33:41 - 152° (SSE) 1,421 5.8 -19.7°
Reaches altitude 10° 04:34:32 10° 137° (SE) 1,304 5.8 -19.5°
Maximum altitude 04:35:08 11° 125° (SE) 1,277 5.9 -19.4°
Drops below altitude 10° 04:35:45 10° 113° (ESE) 1,302 6.1 -19.3°
Sets 04:39:09 0° 69° (ENE) 2,138 8.3 -18.5°
